TimeCDT,TemperatureF,Dew PointF,Humidity,Sea Level PressureIn,VisibilityMPH,Wind Direction,Wind SpeedMPH,Gust SpeedMPH,PrecipitationIn,Events,Conditions,WindDirDegrees,DateUTC
12:53 AM,62.1,53.1,72,30.12,10.0,South,4.6,-,N/A,,Clear,190,2012-05-12 05:53:00
1:53 AM,62.1,54.0,75,30.12,10.0,Calm,Calm,-,N/A,,Clear,0,2012-05-12 06:53:00
2:53 AM,63.0,53.1,70,30.13,10.0,WNW,5.8,-,N/A,,Overcast,300,2012-05-12 07:53:00
3:53 AM,62.1,54.0,75,30.13,10.0,SE,3.5,-,N/A,,Overcast,130,2012-05-12 08:53:00
4:53 AM,62.1,54.0,75,30.15,10.0,Calm,Calm,-,N/A,,Scattered Clouds,0,2012-05-12 09:53:00
5:53 AM,61.0,54.0,78,30.17,10.0,NNE,9.2,-,N/A,,Clear,20,2012-05-12 10:53:00
6:53 AM,59.0,45.0,60,30.19,10.0,NNE,10.4,-,N/A,,Clear,30,2012-05-12 11:53:00
7:53 AM,59.0,44.1,58,30.21,10.0,NNE,12.7,-,N/A,,Clear,30,2012-05-12 12:53:00
8:53 AM,62.1,45.0,53,30.22,10.0,NNE,10.4,-,N/A,,Clear,30,2012-05-12 13:53:00
9:53 AM,63.0,45.0,52,30.22,10.0,North,11.5,-,N/A,,Clear,350,2012-05-12 14:53:00
10:53 AM,64.9,46.9,52,30.22,10.0,NNE,10.4,-,N/A,,Clear,30,2012-05-12 15:53:00
11:53 AM,64.0,48.0,56,30.24,10.0,North,10.4,-,N/A,,Mostly Cloudy,10,2012-05-12 16:53:00
12:53 PM,66.0,50.0,56,30.22,10.0,NNE,9.2,-,N/A,,Clear,20,2012-05-12 17:53:00
1:53 PM,66.0,51.1,59,30.22,10.0,NNE,11.5,-,N/A,,Clear,20,2012-05-12 18:53:00
2:53 PM,66.0,52.0,60,30.22,10.0,NNE,16.1,-,N/A,,Mostly Cloudy,30,2012-05-12 19:53:00
3:53 PM,61.0,53.1,75,30.20,10.0,NNE,11.5,-,N/A,,Overcast,30,2012-05-12 20:53:00
4:53 PM,63.0,53.1,70,30.19,10.0,NNE,11.5,-,N/A,,Overcast,20,2012-05-12 21:53:00
5:53 PM,64.0,54.0,70,30.19,10.0,North,11.5,-,N/A,,Overcast,10,2012-05-12 22:53:00
6:53 PM,64.9,53.1,65,30.19,10.0,North,9.2,18.4,N/A,,Mostly Cloudy,10,2012-05-12 23:53:00
7:53 PM,62.1,51.1,67,30.20,10.0,North,6.9,-,N/A,,Scattered Clouds,10,2012-05-13 00:53:00
8:53 PM,61.0,51.1,70,30.21,10.0,NNE,5.8,-,N/A,,Clear,20,2012-05-13 01:53:00
9:53 PM,60.1,53.1,78,30.22,10.0,NNE,5.8,-,N/A,,Clear,20,2012-05-13 02:53:00
10:53 PM,60.1,52.0,75,30.24,10.0,North,4.6,-,N/A,,Overcast,10,2012-05-13 03:53:00
11:53 PM,60.1,51.1,72,30.22,10.0,North,3.5,-,N/A,,Clear,350,2012-05-13 04:53:00